Find Kosmos-894

NORAD ID: 9846 Int'l Des: 1977-013 Owner: VMF Country: SU operational
LEOCIRCULARPOLAR

Live Position

Loading 3D Globe...

About Kosmos-894

Description loading...

Upcoming Passes

Passes for default location (London). Set your location on the main map for personalized predictions.

Altitude History

Loading altitude history...

Two-Line Element Set

1 09846U 77013A 26107.17304240 .00000073 00000-0 61566-4 0 9990
2 09846 82.9421 142.3158 0030336 21.7639 40.9541 13.74203722463795
Epoch: Apr 17, 2026 • Age: 12 hours

Current Status

Altitude 1010.6 km
Velocity 7.35 km/s
Sub-Earth Point -69.06°S, 41.27°E
Type other

Most Searched